Weather History for Erzincan, Turkey

Change the Weather History Date:

Sunday, August 18, 2013

  Actual Average Record
Temperature  
Mean Temperature 76 °F -  
Max Temperature 88 °F 84 °F - ()
Min Temperature 65 °F 53 °F - ()
Cooling Degree Days 12    
Growing Degree Days 26 (Base 50)    
Moisture  
Dew Point 51 °F    
Average Humidity 41    
Maximum Humidity 64    
Minimum Humidity 16    
Precipitation  
Precipitation 0.00 in 0.01 in - ()
Sea Level Pressure  
Sea Level Pressure 29.89 in    
Wind  
Wind Speed 8 mph ()    
Max Wind Speed 16 mph    
Max Gust Speed 28 mph    
Visibility 6.4 miles    
Events      
T = Trace of Precipitation, MM = Missing Value Source: Averaged Metar Reports

Daily Weather History Graph

Daily Weather History Graph

Search for Another Location

Airport:

Trip Planner

Search our weather history database for the weather conditions in past years. The results will help you decide how hot, cold, wet, or windy it might be!

Date:

Astronomy

Aug. 18, 2013 Rise Set
Actual Time 5:36 AM EEST 7:14 PM EEST
Civil Twilight 5:08 AM EEST 7:42 PM EEST
Nautical Twilight 4:33 AM EEST 8:17 PM EEST
Astronomical Twilight 3:56 AM EEST 8:53 PM EEST
Moon 5:02 PM EEST (8/18) 2:22 AM EEST (8/18)
Length of Visible Light 14h 34m
Length of Day
13h 37m
Waxing Gibbous, 90% of the Moon is Illuminated
Aug 18
Waxing Gibbous
Aug 21
Full
Aug 28
Last Quarter
Sep 5
New
Sep 12
First Quarter

Hourly Weather History & Observations

Time (EEST) Temp. Dew Point Humidity Pressure Visibility Wind Dir Wind Speed Gust Speed Precip Events Conditions
12:50 AM 71.6 °F 53.6 °F 53% 29.92 in 6.2 mi WNW 9.2 mph - N/A   Scattered Clouds
1:50 AM 71.6 °F 53.6 °F 53% 29.92 in 6.2 mi West 9.2 mph - N/A   Scattered Clouds
3:00 AM 71 °F 54 °F 44%  in 12 mi WNW 8.1 mph - -   Partly Cloudy
3:50 AM 69.8 °F 53.6 °F 56% 29.89 in 6.2 mi West 8.1 mph - N/A   Scattered Clouds
4:50 AM 69.8 °F 53.6 °F 56% 29.92 in 6.2 mi West 8.1 mph - N/A   Scattered Clouds
5:50 AM 68.0 °F 55.4 °F 64% 29.92 in 6.2 mi WNW 8.1 mph - N/A   Scattered Clouds
6:50 AM 68.0 °F 55.4 °F 64% 29.92 in 6.2 mi WNW 6.9 mph - N/A   Scattered Clouds
7:50 AM 71.6 °F 55.4 °F 57% 29.92 in 6.2 mi WNW 5.8 mph - N/A   Scattered Clouds
8:50 AM 75.2 °F 55.4 °F 50% 29.92 in 6.2 mi Variable 1.2 mph - N/A   Scattered Clouds
9:00 AM 75 °F 54 °F 38%  in 6 mi East 1.2 mph - -   Partly Cloudy
9:50 AM 78.8 °F 53.6 °F 42% 29.92 in 6.2 mi West 9.2 mph - N/A   Mostly Cloudy
10:50 AM 78.8 °F 53.6 °F 42% 29.89 in 6.2 mi WNW 12.7 mph - N/A   Mostly Cloudy
11:50 AM 80.6 °F 51.8 °F 37% 29.89 in 6.2 mi West 11.5 mph - N/A   Mostly Cloudy
12:50 PM 84.2 °F 51.8 °F 33% 29.86 in 6.2 mi WNW 9.2 mph - N/A   Mostly Cloudy
1:50 PM 86.0 °F 50.0 °F 29% 29.83 in 6.2 mi West 11.5 mph - N/A   Scattered Clouds
2:50 PM 86.0 °F 46.4 °F 25% 29.83 in 6.2 mi WNW 9.2 mph - N/A   Scattered Clouds
3:00 PM 85 °F 46 °F 16%  in 6 mi WNW 9.2 mph - -   Partly Cloudy
3:50 PM 86.0 °F 48.2 °F 27% 29.83 in 6.2 mi NNE 16.1 mph 27.6 mph N/A   Scattered Clouds
4:50 PM 80.6 °F 48.2 °F 32% 29.83 in 6.2 mi North 13.8 mph - N/A   Scattered Clouds
5:50 PM 80.6 °F 48.2 °F 32% 29.86 in 6.2 mi North 12.7 mph - N/A   Scattered Clouds
6:50 PM 78.8 °F 48.2 °F 34% 29.86 in 6.2 mi NNE 13.8 mph - N/A   Scattered Clouds
7:50 PM 75.2 °F 48.2 °F 38% 29.89 in 6.2 mi NNW 13.8 mph - N/A   Scattered Clouds
8:50 PM 73.4 °F 48.2 °F 41% 29.92 in 6.2 mi NW 13.8 mph - N/A   Scattered Clouds
9:00 PM 74 °F 47 °F 28%  in 6 mi NW 13.8 mph - -   Partly Cloudy
9:50 PM 71.6 °F 48.2 °F 43% 29.92 in 6.2 mi NNW 13.8 mph - N/A   Partly Cloudy
10:50 PM 69.8 °F 46.4 °F 43% 29.92 in 6.2 mi NNW 13.8 mph - N/A   Partly Cloudy
11:50 PM 69.8 °F 44.6 °F 40% 29.92 in 6.2 mi WNW 15.0 mph - N/A   Partly Cloudy